Regional Weather Roundup
Issued by NWS

Home | Current Version | Previous Version | Text Only | Print | Product List | Glossary Off
Versions: 1 2 3 4 5 6 7 8 9 10 11 12 13 14 15 16 17 18 19 20 21 22 23 24 25 26 27

000
ASUS45 KCYS 170310
RWRWY

WYOMING REGIONAL WEATHER ROUNDUP
NATIONAL WEATHER SERVICE CHEYENNE WY
900 PM MDT WED APR 16 2014

NOTE:  "FAIR" INDICATES FEW OR NO CLOUDS BELOW 12,000 FEET
WITH NO SIGNIFICANT WEATHER AND/OR OBSTRUCTIONS TO VISIBILITY.

WYZ001-170400-
YELLOWSTONE NATIONAL PARK

CITY           SKY/WX    TMP DP  RH WIND       PRES   REMARKS
LK YELLOWSTONE   N/A     27  16  63 CALM      30.03R
W YELLOWSTONE  NOT AVBL

$$
WYZ002>013-054>058-071-098>099-170400-
NORTHERN WYOMING

CITY           SKY/WX    TMP DP  RH WIND       PRES   REMARKS
JACKSON        PTCLDY    34  19  55 CALM      30.02R
CODY           PTCLDY    36  27  69 N6        30.01R WCI  31
GREYBULL       MOCLDY    45  31  58 NW7       30.00R
WORLAND        CLEAR     39  30  70 E7        29.99R WCI  34
SHERIDAN       MOCLDY    37  32  82 S6        30.03R WCI  32
BUFFALO        MOCLDY    32  27  81 S7        30.05R WCI  26
GILLETTE       CLOUDY    34  32  92 CALM      30.06R
HULETT         FAIR     N/A N/A N/A SE10      30.08
NEWCASTLE      DRIZZLE   34  32  93 SE13      30.07  WCI  25

$$
WYZ014>020-022>026-101>103-170400-
CENTRAL WYOMING

CITY           SKY/WX    TMP DP  RH WIND       PRES   REMARKS
BIG PINEY      CLEAR     33  14  45 NE10      30.03R WCI  25
PINEDALE       CLEAR     32  23  69 CALM      30.04R
DUBOIS         FAIR      32  18  55 W7        30.00R WCI  26
LANDER         CLOUDY    42  22  44 N9        29.98R
RIVERTON       PTCLDY    40  20  44 NE10      30.00R WCI  33
CASPER         MOCLDY    36  31  82 E15       30.04R WCI  27
DOUGLAS        MOCLDY    34  32  92 NE7       30.08R WCI  28

$$
WYZ021-027>030-104>119-170400-
SOUTHERN WYOMING

CITY           SKY/WX    TMP DP  RH WIND       PRES   REMARKS
EVANSTON       CLEAR     37  14  38 W12       30.04R WCI  29
KEMMERER       PTCLDY    36  14  41 NW8       30.04R WCI  29
FORT BRIDGER   FAIR      38  10  31 W6        30.05R WCI  33
ROCK SPRINGS   CLEAR     41   8  25 NW12      30.00R
DIXON          MOCLDY    36  17  46 E3        30.01R
RAWLINS        CLEAR     34   8  33 N8        29.99R WCI  27
SARATOGA       FAIR      32  12  43 SW10      29.99R WCI  24
LARAMIE        MOCLDY    32  25  75 SE9       30.02R WCI  24
CHEYENNE       CLOUDY    36  27  69 SE3       30.07R
TORRINGTON     PTCLDY    39  32  76 E10       30.06R WCI  32
PINE BLUFFS    CLOUDY    36  28  75 E5        30.08R WCI  32

$$



USA.gov is the U.S. government's official web portal to all federal, state and local government web resources and services.